Regional Weather Roundup
Issued by NWS

Home | Current Version | Previous Version | Graphics & Text | Print | Product List | Glossary On
Versions: 1 2 3 4 5 6 7 8 9 10 11 12 13 14 15 16 17 18 19 20 21 22 23 24 25 26 27 28 29 30 31 32 33 34 35 36 37 38 39 40 41 42 43 44 45 46 47 48 49 50
000
ASUS45 KABQ 012201
RWRNM
WEATHER ROUNDUP FOR NEW MEXICO
NATIONAL WEATHER SERVICE ALBUQUERQUE NM
400 PM MDT MON SEP 01 2014

NOTE: "FAIR" MEANS FEW OR NO CLOUDS BELOW 12,000 FEET AGL WITH NO
       SIGNIFICANT WEATHER OR OBSTRUCTIONS TO VISION.

      THIS PRODUCT IS RELEASED AS TWO VERSIONS.  ONE VERSION NEAR
      THE TOP OF THE HOUR CONTAINING PRELIMINARY DATA FROM ALBUQUERQUE
      AND OTHER STATIONS.  A FINAL VERSION WITH ADDITIONAL DATA IS
      ISSUED ABOUT 10 MINUTES AFTER THE HOUR.

NMZ501-503-504-510>518-012300-
NORTHWEST PLATEAU/NORTHCENTRAL MOUNTAINS

CITY           SKY/WX    TMP DP  RH WIND       PRES   REMARKS
FARMINGTON     SUNNY     89  28  11 W6G26     30.04F
LOS ALAMOS     SUNNY     83  30  14 W17G23    30.17F
SANTA FE       SUNNY     89  30  12 W14G20    30.09F
ANGEL FIRE     FAIR      75  29  18 SW21G29   30.25S

$$
NMZ402-403-502-505>509-012300-
WESTCENTRAL MOUNTAINS/SOUTHWEST MOUNTAINS

CITY           SKY/WX    TMP DP  RH WIND       PRES   REMARKS
GALLUP         SUNNY     85  34  16 W6G21     30.14F
SILVER CITY    SUNNY     90  28  11 W16G23    30.09F

$$
NMZ407-409-411-412-012300-
SOUTHERN DESERTS

CITY           SKY/WX    TMP DP  RH WIND       PRES   REMARKS
LORDSBURG      FAIR      93  36  13 SW6G21    30.01F
DEMING         SUNNY     96  29   9 W8G23     29.98F
LAS CRUCES     SUNNY     97  29   9 SW10G20   29.99S
HOLLOMAN AFB   SUNNY     96  33  11 W3        29.94F
ALAMOGORDO     SUNNY     95  34  11 W9G21     29.97F
T OR C         SUNNY     94  34  12 SE8G20    29.99F

$$
NMZ519>523-012300-
CENTRAL VALLEYS/CENTRAL HIGHLANDS

CITY           SKY/WX    TMP DP  RH WIND       PRES   REMARKS
ALBUQUERQUE    MOSUNNY   90  36  14 W8G17     30.04F
DOUBLE EAGLE   MOSUNNY   88  39  18 W7        30.08F
CLINES CORNERS SUNNY     83  33  16 W18       30.16F
BELEN          FAIR      94  35  12 SW9       30.02F
SOCORRO        FAIR      93  38  15 SE9       30.00F

$$
NMZ524>526-539-540-012300-
SOUTHCENTRAL MOUNTAINS

CITY           SKY/WX    TMP DP  RH WIND       PRES   REMARKS
RUIDOSO        NOT AVBL

$$
NMZ527>531-012300-
NORTHEAST HIGHLANDS/NORTHEAST PLAINS

CITY           SKY/WX    TMP DP  RH WIND       PRES   REMARKS
LAS VEGAS      SUNNY     86  36  16 SW17G24   30.10F
RATON          SUNNY     84  34  16 S14       30.01F
CLAYTON        SUNNY     83  50  31 E12       29.99F

$$
NMZ532>537-012300-
EASTCENTRAL PLAINS

CITY           SKY/WX    TMP DP  RH WIND       PRES   REMARKS
TUCUMCARI      SUNNY     97  39  13 S5        29.90F
CANNON AFB     SUNNY     97  41  14 SW10      29.94S
CLOVIS AIRPORT   N/A     97  43  15 W8G16     29.95F

$$
NMZ028-029-538-012300-
SOUTHEAST PLAINS

CITY           SKY/WX    TMP DP  RH WIND       PRES   REMARKS
ROSWELL        SUNNY     99  41  13 E12       29.88F
CARLSBAD       SUNNY    103  38  10 N5        29.85F HX  97
HOBBS          SUNNY     99  37  12 SW9       29.90F


$$



USA.gov is the U.S. government's official web portal to all federal, state and local government web resources and services.